Всё
Nordhorn-Lingen Airport ZOW Погода
There is no TAF data available at ZOW or any nearby airports.
There is no METAR data available at ZOW. Showing METAR data for ETWM (19 mi С).
Недавняя история METAR для ETWM (для ZOW данные отсутствуют)
| Date | Time (CEST) | Flight Rules | Wind Dir. | Speed | Type | Height AGL (ft) | Visibility | Temp (°C) | Temp (°F) | Dew Point (°C) | Dew Point (°F) | Rel. Humid. | Pressure | Density Altitude | Remarks |
|---|---|---|---|---|---|---|---|---|---|---|---|---|---|---|---|
| 05-сен | 20:20 | n/a | 250° | 4 kt | Missing | 15° | 59° | 8° | 46° | 63% | 1023 mb | -231 ft | |||
| 05-сен | 19:20 | n/a | 260° | 7 kt | Missing | 17° | 62° | 9° | 48° | 59% | 1022 mb | 38 ft | |||
| 05-сен | 18:20 | n/a | 270° | 9 kt | Missing | 18° | 64° | 8° | 46° | 52% | 1021 mb | 188 ft | |||
| 05-сен | 17:20 | n/a | 270° | 8 kt | Missing | 19° | 66° | 9° | 48° | 52% | 1021 mb | 308 ft | Wind gusting to 24 KT | ||
| 05-сен | 16:20 | n/a | 280° | 10 kt | Missing | 18° | 64° | 10° | 50° | 59% | 1020 mb | 217 ft | |||
| 05-сен | 15:20 | n/a | 270° | 9 kt | Missing | 19° | 66° | 10° | 50° | 56% | 1019 mb | 367 ft | |||
| 05-сен | 14:20 | n/a | 260° | 8 kt | Missing | 19° | 66° | 11° | 51° | 60% | 1019 mb | 367 ft | |||
| 05-сен | 13:20 | n/a | 250° | 11 kt | Missing | 19° | 66° | 10° | 50° | 56% | 1018 mb | 396 ft | |||
| 05-сен | 12:20 | n/a | 250° | 12 kt | Missing | 18° | 64° | 10° | 50° | 59% | 1017 mb | 306 ft | Wind gusting to 27 KT | ||
| 05-сен | 11:20 | n/a | 240° | 10 kt | Missing | 17° | 62° | 12° | 53° | 72% | 1017 mb | 186 ft | |||
| 05-сен | 10:20 | n/a | 230° | 10 kt | Missing | 17° | 62° | 13° | 55° | 77% | 1016 mb | 216 ft | Wind gusting to 21 KT | ||
| 05-сен | 09:20 | n/a | 230° | 8 kt | Missing | 16° | 60° | 12° | 53° | 77% | 1016 mb | 96 ft | |||
| 05-сен | 08:20 | n/a | 210° | 6 kt | Missing | 14° | 57° | 11° | 51° | 82% | 1015 mb | -115 ft | |||
| 05-сен | 07:20 | n/a | 210° | 5 kt | Missing | 13° | 55° | 11° | 51° | 88% | 1015 mb | -235 ft | |||
| 05-сен | 06:20 | n/a | 200° | 4 kt | Missing | 12° | 53° | 11° | 51° | 94% | 1014 mb | -325 ft | |||
| 05-сен | 05:20 | n/a | 200° | 4 kt | Missing | 13° | 55° | 11° | 51° | 88% | 1014 mb | -205 ft | |||
| 05-сен | 04:20 | n/a | 210° | 4 kt | Missing | 13° | 55° | 11° | 51° | 88% | 1014 mb | -205 ft | |||
| 05-сен | 03:20 | n/a | 210° | 4 kt | Missing | 13° | 55° | 12° | 53° | 94% | 1014 mb | -205 ft | |||
| 05-сен | 02:20 | n/a | 210° | 5 kt | Missing | 14° | 57° | 12° | 53° | 88% | 1014 mb | -85 ft | |||
| 05-сен | 01:20 | n/a | 220° | 5 kt | Missing | 15° | 59° | 12° | 53° | 82% | 1013 mb | 64 ft | |||
| 05-сен | 00:20 | n/a | 220° | 5 kt | Missing | 15° | 59° | 12° | 53° | 82% | 1013 mb | 64 ft | |||
| 04-сен | 23:20 | n/a | 230° | 6 kt | Missing | 15° | 59° | 12° | 53° | 82% | 1012 mb | 94 ft | |||
| 04-сен | 22:20 | n/a | 230° | 5 kt | Missing | 16° | 60° | 12° | 53° | 77% | 1012 mb | 214 ft | |||
| 04-сен | 21:20 | n/a | 240° | 7 kt | Missing | 16° | 60° | 12° | 53° | 77% | 1012 mb | 214 ft |
Вход
| Ваш браузер не поддерживается.. обновите веб-браузер |
